EW3770 Weather Reports


Display with metric or nautical units.
time (UTC)temp
F
wind
direction
speed
MPH
gust
MPH
rain 1hr
in
rain 24hr
in
rain mn
in
humidity
%
barometer
mb
20210419034012 50 28 0.0 3.0 0.00 0.00 0.00 36 1019.5
20210419033815 50 28 2.0 3.0 0.00 0.00 0.00 35 1019.4
20210419032042 51 29 2.0 4.0 0.00 0.00 0.00 34 1019.3
20210419031014 52 29 1.0 4.0 0.00 0.00 0.00 34 1019.2
20210419030017 53 0 0.0 0.0 0.00 0.00 0.00 31 1019.2
20210419025221 53 0 0.0 0.0 0.00 0.00 0.00 29 1019.1
20210419024024 54 0 0.0 0.0 0.00 0.00 0.00 27 1019.1
20210419023020 55 0 0.0 0.0 0.00 0.00 0.00 26 1019.1
20210419022202 56 0 0.0 0.0 0.00 0.00 0.00 25 1019.0
20210419021010 57 0 0.0 0.0 0.00 0.00 0.00 24 1019.1
20210419020020 58 29 0.0 1.0 0.00 0.00 0.00 23 1019.1
20210419015024 58 0 0.0 0.0 0.00 0.00 0.00 22 1019.2
20210419014011 59 29 0.0 2.0 0.00 0.00 0.00 21 1019.3
20210419013018 59 29 2.0 4.0 0.00 0.00 0.00 20 1019.3
20210419012158 60 29 1.0 3.0 0.00 0.00 0.00 20 1019.5
20210419011016 60 27 1.0 4.0 0.00 0.00 0.00 20 1019.6
20210419010025 60 16 2.0 5.0 0.00 0.00 0.00 20 1019.7
20210419005221 60 14 2.0 5.0 0.00 0.00 0.00 20 1019.8
20210419004011 61 7 3.0 9.0 0.00 0.00 0.00 20 1019.9
20210419003214 62 358 4.0 11.0 0.00 0.00 0.00 20 1020.0
20210419002315 62 312 5.0 11.0 0.00 0.00 0.00 21 1020.2
20210419001022 62 331 7.0 11.0 0.00 0.00 0.00 20 1020.2
20210419000022 62 336 6.0 12.0 0.00 0.00 0.00 20 1020.3
20210418235223 62 327 6.0 13.0 0.00 0.00 0.00 21 1020.3
20210418234022 62 320 8.0 14.0 0.00 0.00 0.00 21 1020.3
20210418233139 62 313 7.0 14.0 0.00 0.00 0.00 22 1020.4
20210418232548 62 324 7.0 13.0 0.00 0.00 0.00 21 1020.4
20210418231019 62 324 8.0 14.0 0.00 0.00 0.00 22 1020.4
20210418230028 62 335 9.0 15.0 0.00 0.00 0.00 22 1020.4
20210418225232 62 328 7.0 14.0 0.00 0.00 0.00 22 1020.5
20210418224028 63 327 8.0 16.0 0.00 0.00 0.00 21 1020.7
20210418223034 62 332 8.0 15.0 0.00 0.00 0.00 24 1020.7
20210418222239 63 328 7.0 14.0 0.00 0.00 0.00 23 1020.7
20210418221025 62 330 7.0 15.0 0.00 0.00 0.00 25 1020.9
20210418220021 62 320 7.0 16.0 0.00 0.00 0.00 23 1021.0
20210418215244 62 337 7.0 14.0 0.00 0.00 0.00 23 1021.3
20210418214020 63 323 5.0 11.0 0.00 0.00 0.00 25 1021.4
20210418213020 62 339 5.0 12.0 0.00 0.00 0.00 25 1021.6
20210418212308 63 320 6.0 13.0 0.00 0.00 0.00 23 1021.8
20210418211021 62 325 7.0 15.0 0.00 0.00 0.00 23 1021.9
20210418210039 62 347 5.0 12.0 0.00 0.00 0.00 27 1021.9
20210418205228 62 14 5.0 12.0 0.00 0.00 0.00 24 1022.0
20210418204020 62 344 6.0 11.0 0.00 0.00 0.00 27 1022.2
20210418203019 62 341 5.0 12.0 0.00 0.00 0.00 27 1022.2
20210418202253 61 22 6.0 12.0 0.00 0.00 0.00 25 1022.3
20210418201029 61 23 5.0 12.0 0.00 0.00 0.00 25 1022.3
20210418200026 62 320 4.0 9.0 0.00 0.00 0.00 26 1022.4
20210418195152 61 2 3.0 10.0 0.00 0.00 0.00 28 1022.5
20210418194028 61 47 6.0 14.0 0.00 0.00 0.00 23 1022.5
20210418193051 62 306 2.0 7.0 0.00 0.00 0.00 29 1022.6
20210418192423 61 15 4.0 9.0 0.00 0.00 0.00 24 1022.8
20210418191048 61 337 1.0 5.0 0.00 0.00 0.00 29 1022.9
20210418190023 60 9 4.0 9.0 0.00 0.00 0.00 28 1023.1
20210418185124 60 55 2.0 6.0 0.00 0.00 0.00 28 1023.2
20210418184020 59 358 4.0 10.0 0.00 0.00 0.00 28 1023.3
20210418183033 59 18 3.0 12.0 0.00 0.00 0.00 27 1023.5
20210418182145 59 20 2.0 8.0 0.00 0.00 0.00 30 1023.6
20210418181027 60 326 2.0 8.0 0.00 0.00 0.00 30 1023.8
20210418180022 59 339 2.0 5.0 0.00 0.00 0.00 29 1023.9
20210418172328 56 134 2.0 5.0 0.00 0.00 0.00 37 1024.2
20210418171019 56 292 1.0 7.0 0.00 0.00 0.00 32 1024.3
20210418170021 56 37 1.0 5.0 0.00 0.00 0.00 34 1024.4
20210418165033 55 111 1.0 7.0 0.00 0.00 0.00 33 1024.5
20210418164024 55 146 1.0 4.0 0.00 0.00 0.00 36 1024.6
20210418163140 54 164 2.0 5.0 0.00 0.00 0.00 37 1024.6
20210418162456 53 143 1.0 8.0 0.00 0.00 0.00 40 1024.7
20210418161023 53 149 1.0 8.0 0.00 0.00 0.00 38 1024.7
20210418160032 53 180 1.0 4.0 0.00 0.00 0.00 38 1024.7
20210418155127 52 148 1.0 5.0 0.00 0.00 0.00 37 1024.7
20210418154023 51 143 0.0 3.0 0.00 0.00 0.00 38 1024.7
20210418153020 50 149 1.0 5.0 0.00 0.00 0.00 41 1024.7
20210418152126 50 144 1.0 5.0 0.00 0.00 0.00 41 1024.7
20210418151021 48 143 0.0 3.0 0.00 0.00 0.00 47 1024.8
20210418150022 48 139 1.0 4.0 0.00 0.00 0.00 47 1024.8
20210418145111 46 148 1.0 7.0 0.00 0.00 0.00 49 1024.8
20210418144029 46 166 0.0 3.0 0.00 0.00 0.00 51 1024.7
20210418143035 45 199 0.0 4.0 0.00 0.00 0.00 52 1024.7
20210418142244 43 299 0.0 2.0 0.00 0.00 0.00 54 1024.7
20210418141023 41 311 0.0 3.0 0.00 0.00 0.00 58 1024.7
20210418140040 38 318 0.0 2.0 0.00 0.00 0.00 65 1024.7
20210418135234 35 0 0.0 0.0 0.00 0.00 0.00 71 1024.6
20210418134024 33 0 0.0 0.0 0.00 0.00 0.00 73 1024.6
20210418133023 32 0 0.0 0.0 0.00 0.00 0.00 73 1024.6
20210418132049 31 0 0.0 0.0 0.00 0.00 0.00 71 1024.5
20210418131026 31 318 1.0 2.0 0.00 0.00 0.00 71 1024.5
20210418130222 31 318 0.0 2.0 0.00 0.00 0.00 71 1024.3
20210418125714 31 318 1.0 3.0 0.00 0.00 0.00 71 1024.2
20210418124105 31 318 0.0 1.0 0.00 0.00 0.00 70 1024.2
20210418123442 31 318 1.0 2.0 0.00 0.00 0.00 70 1024.3
20210418122419 31 318 0.0 2.0 0.00 0.00 0.00 70 1024.2
20210418121058 31 0 0.0 0.0 0.00 0.00 0.00 70 1024.1
20210418120200 31 0 0.0 0.0 0.00 0.00 0.00 71 1024.1
20210418115251 31 0 0.0 0.0 0.00 0.00 0.00 71 1024.1
20210418114021 31 0 0.0 0.0 0.00 0.00 0.00 71 1024.1
20210418113057 32 0 0.0 0.0 0.00 0.00 0.00 71 1024.2
20210418112317 32 0 0.0 0.0 0.00 0.00 0.00 70 1024.2
20210418111022 32 0 0.0 0.0 0.00 0.00 0.00 71 1024.1
20210418110117 32 0 0.0 0.0 0.00 0.00 0.00 70 1024.1
20210418105243 32 0 0.0 0.0 0.00 0.00 0.00 69 1024.0
20210418104021 32 0 0.0 0.0 0.00 0.00 0.00 69 1024.0
20210418103028 33 0 0.0 0.0 0.00 0.00 0.00 68 1023.9
20210418102256 33 0 0.0 0.0 0.00 0.00 0.00 67 1023.8
20210418101020 33 318 1.0 3.0 0.00 0.00 0.00 66 1023.9
20210418100033 33 318 0.0 2.0 0.00 0.00 0.00 66 1023.9
20210418095354 34 0 0.0 0.0 0.00 0.00 0.00 65 1023.9
20210418094025 34 0 0.0 0.0 0.00 0.00 0.00 64 1023.8
20210418093037 34 318 0.0 1.0 0.00 0.00 0.00 64 1023.7
20210418092123 35 318 0.0 2.0 0.00 0.00 0.00 63 1023.8
20210418091019 35 0 0.0 0.0 0.00 0.00 0.00 62 1023.7
20210418090048 35 318 0.0 3.0 0.00 0.00 0.00 62 1023.8
20210418085139 35 318 0.0 3.0 0.00 0.00 0.00 61 1023.8
20210418084018 36 318 0.0 1.0 0.00 0.00 0.00 60 1023.7
20210418083026 36 318 0.0 1.0 0.00 0.00 0.00 58 1023.7
20210418082038 37 318 1.0 3.0 0.00 0.00 0.00 56 1023.6
20210418081020 37 0 0.0 0.0 0.00 0.00 0.00 56 1023.7
20210418080141 38 0 0.0 0.0 0.00 0.00 0.00 56 1023.7
20210418075237 38 0 0.0 0.0 0.00 0.00 0.00 54 1023.7
20210418074021 38 318 0.0 1.0 0.00 0.00 0.00 53 1023.6
20210418073025 38 318 1.0 3.0 0.00 0.00 0.00 53 1023.6
20210418072107 38 318 1.0 3.0 0.00 0.00 0.00 55 1023.6
20210418071033 38 318 0.0 3.0 0.00 0.00 0.00 56 1023.6
20210418070021 39 322 0.0 2.0 0.00 0.00 0.00 56 1023.6
20210418065156 40 315 1.0 3.0 0.00 0.00 0.00 56 1023.6
20210418064020 40 313 0.0 1.0 0.00 0.00 0.00 56 1023.5
20210418063021 41 313 0.0 2.0 0.00 0.00 0.00 52 1023.5
20210418062055 42 313 1.0 3.0 0.00 0.00 0.00 53 1023.4
20210418061025 43 314 0.0 3.0 0.00 0.00 0.00 54 1023.5
20210418060140 44 314 2.0 6.0 0.00 0.00 0.00 49 1023.4
20210418055243 44 334 2.0 9.0 0.00 0.00 0.00 49 1023.3
20210418054025 44 344 2.0 6.0 0.00 0.00 0.00 49 1023.3
20210418053050 44 325 4.0 10.0 0.00 0.00 0.00 49 1023.3
20210418052250 44 329 4.0 10.0 0.00 0.00 0.00 50 1023.3
20210418051021 43 331 3.0 8.0 0.00 0.00 0.00 52 1023.3
20210418050037 44 341 3.0 6.0 0.00 0.00 0.00 52 1023.2
20210418045135 44 343 2.0 5.0 0.00 0.00 0.00 51 1023.1
20210418044020 44 346 1.0 4.0 0.00 0.00 0.00 49 1023.2
20210418043026 44 350 3.0 6.0 0.00 0.00 0.00 48 1023.1
20210418042228 44 5 1.0 4.0 0.00 0.00 0.00 47 1023.0
20210418041024 45 5 1.0 4.0 0.00 0.00 0.00 45 1022.8
20210418040021 45 5 1.0 4.0 0.00 0.00 0.00 45 1022.9
20210418035146 45 14 1.0 4.0 0.00 0.00 0.00 44 1022.9